TimeEST,TemperatureF,Dew PointF,Humidity,Sea Level PressureIn,VisibilityMPH,Wind Direction,Wind SpeedMPH,Gust SpeedMPH,PrecipitationIn,Events,Conditions,WindDirDegrees,DateUTC
12:54 AM,42.1,34.0,73,30.02,10.0,North,10.4,-,N/A,,Overcast,360,2013-02-16 05:54:00
1:54 AM,39.0,35.1,86,30.01,10.0,NNE,11.5,-,0.00,,Overcast,20,2013-02-16 06:54:00
2:35 AM,37.4,33.8,87,29.99,10.0,NNE,10.4,-,N/A,,Overcast,30,2013-02-16 07:35:00
2:54 AM,37.9,34.0,86,29.99,10.0,NNE,8.1,-,N/A,,Overcast,30,2013-02-16 07:54:00
3:54 AM,37.9,34.0,86,29.99,10.0,NE,6.9,-,N/A,,Overcast,40,2013-02-16 08:54:00
4:54 AM,39.0,33.1,79,29.99,10.0,North,4.6,-,N/A,,Overcast,10,2013-02-16 09:54:00
5:54 AM,37.9,33.1,83,29.98,10.0,ENE,5.8,-,0.00,,Overcast,60,2013-02-16 10:54:00
6:54 AM,37.9,35.1,89,29.98,10.0,NNW,9.2,-,0.00,Rain,Light Rain,340,2013-02-16 11:54:00
7:18 AM,37.4,33.8,87,29.97,6.0,North,9.2,-,0.01,Rain,Light Rain,350,2013-02-16 12:18:00
7:26 AM,37.4,33.8,87,29.97,5.0,North,11.5,-,0.01,Rain,Light Rain,350,2013-02-16 12:26:00
7:54 AM,36.0,34.0,93,29.99,8.0,North,13.8,-,0.02,Rain,Light Rain,360,2013-02-16 12:54:00
8:54 AM,36.0,33.1,89,29.97,10.0,NE,8.1,-,0.01,Rain-Snow,Light Rain,40,2013-02-16 13:54:00
9:54 AM,37.0,34.0,89,29.97,10.0,North,6.9,-,0.00,,Overcast,10,2013-02-16 14:54:00
10:40 AM,37.4,33.8,87,29.95,6.0,North,10.4,-,0.00,Snow,Light Snow,10,2013-02-16 15:40:00
10:52 AM,35.6,33.8,93,29.94,4.0,NNE,8.1,-,0.01,Rain-Snow,Light Rain,30,2013-02-16 15:52:00
10:54 AM,37.0,33.1,86,29.96,5.0,NNE,6.9,-,0.01,Rain-Snow,Light Rain,30,2013-02-16 15:54:00
11:05 AM,37.4,33.8,87,29.94,10.0,NE,6.9,-,0.00,,Overcast,50,2013-02-16 16:05:00
11:30 AM,37.4,32.0,81,29.93,8.0,ENE,8.1,-,0.00,Rain-Snow,Light Rain,60,2013-02-16 16:30:00
11:54 AM,36.0,32.0,86,29.94,3.0,ENE,6.9,-,0.00,Rain-Snow,Light Rain,70,2013-02-16 16:54:00
12:00 PM,35.6,33.8,93,29.92,2.0,ENE,6.9,-,0.01,Rain-Snow,Light Rain,70,2013-02-16 17:00:00
12:11 PM,35.6,32.0,87,29.92,2.0,East,5.8,-,0.01,Rain-Snow,Light Rain,80,2013-02-16 17:11:00
12:45 PM,35.6,33.8,93,29.90,2.0,North,4.6,-,0.02,Rain-Snow,Light Rain,350,2013-02-16 17:45:00
12:52 PM,33.8,33.8,100,29.90,0.5,North,5.8,-,0.03,Rain-Snow,Light Rain,350,2013-02-16 17:52:00
12:54 PM,34.0,32.0,92,29.91,0.5,North,3.5,-,0.03,Rain-Snow,Light Rain,360,2013-02-16 17:54:00
1:08 PM,35.6,33.8,93,29.89,0.5,North,3.5,-,0.01,Rain-Snow,Light Rain,10,2013-02-16 18:08:00
1:33 PM,35.6,33.8,93,29.88,5.0,NE,3.5,-,0.02,Rain-Snow,Light Rain,40,2013-02-16 18:33:00
1:54 PM,36.0,33.1,89,29.89,5.0,NE,4.6,-,0.02,Rain-Snow,Light Rain,40,2013-02-16 18:54:00
2:11 PM,35.6,33.8,93,29.86,3.0,NE,6.9,-,0.00,Rain-Snow,Light Rain,40,2013-02-16 19:11:00
2:54 PM,36.0,33.1,89,29.86,4.0,North,6.9,-,0.01,Rain-Snow,Light Rain,360,2013-02-16 19:54:00
3:26 PM,35.6,32.0,87,29.85,2.5,North,5.8,-,0.01,Rain-Snow,Light Rain,360,2013-02-16 20:26:00
3:50 PM,33.8,32.0,93,29.85,1.8,North,8.1,-,0.02,Snow,Light Snow,350,2013-02-16 20:50:00
3:54 PM,34.0,32.0,92,29.86,1.5,North,8.1,-,0.03,Snow,Light Snow,350,2013-02-16 20:54:00
4:11 PM,33.8,32.0,93,29.85,0.8,NNW,8.1,-,0.01,Snow,Light Snow,340,2013-02-16 21:11:00
4:34 PM,33.8,32.0,93,29.84,0.5,North,8.1,-,0.03,Fog-Snow,Light Snow,360,2013-02-16 21:34:00
4:54 PM,34.0,32.0,92,29.86,0.8,NNW,9.2,-,0.03,Snow,Light Snow,340,2013-02-16 21:54:00
5:26 PM,33.8,30.2,87,29.83,0.8,North,12.7,-,0.01,Snow,Light Snow,10,2013-02-16 22:26:00
5:47 PM,33.8,32.0,93,29.84,0.8,North,11.5,18.4,0.02,Snow,Light Snow,10,2013-02-16 22:47:00
5:54 PM,33.1,32.0,96,29.86,1.5,North,11.5,-,0.02,Snow,Light Snow,360,2013-02-16 22:54:00
6:07 PM,33.8,32.0,93,29.84,3.0,North,8.1,-,0.00,Snow,Light Snow,360,2013-02-16 23:07:00
6:54 PM,34.0,32.0,92,29.87,2.5,North,8.1,-,0.00,Snow,Light Snow,350,2013-02-16 23:54:00
7:10 PM,33.8,32.0,93,29.84,3.0,North,10.4,-,0.00,Snow,Light Snow,350,2013-02-17 00:10:00
7:33 PM,33.8,30.2,87,29.85,2.0,North,13.8,-,0.00,Snow,Light Snow,10,2013-02-17 00:33:00
7:54 PM,33.1,30.9,92,29.86,4.0,North,12.7,-,0.00,Snow,Light Snow,360,2013-02-17 00:54:00
8:54 PM,33.1,30.0,89,29.86,10.0,North,8.1,-,0.00,,Mostly Cloudy,360,2013-02-17 01:54:00
9:54 PM,34.0,26.1,73,29.86,10.0,NNW,12.7,-,N/A,,Overcast,340,2013-02-17 02:54:00
10:54 PM,32.0,21.9,66,29.86,10.0,NNW,12.7,-,N/A,,Mostly Cloudy,340,2013-02-17 03:54:00
11:54 PM,30.9,21.0,67,29.87,10.0,NW,11.5,-,N/A,,Partly Cloudy,320,2013-02-17 04:54:00